This demonstration page uses our WeatherBlox Daily Observations layout. Learn more.

Left ArrowRight Arrow

34.74481, -87.66753

Hourly Observations for February 25, 2021

Temp ( °F °C ) Dew Point ( °F °C ) Humidity (%) Winds ( mph kmh ) Pressure ( in mb ) Visibility ( mi km ) Precip ( " mm )
12:53 am 00:53 Mostly Cloudy 58 14.4 51 10.6 78 78 NW 5 7 30.09 1019 10 16 0.00 0.00
1:53 am 01:53 Clear 57 13.9 48 8.9 72 72 NW 5 7 30.10 1019 10 16 0.00 0.00
2:53 am 02:53 Clear 56 13.3 45 7.2 67 67 VRB 6 9 30.12 1020 10 16 0.00 0.00
3:53 am 03:53 Clear 55 12.8 41 5 59 59 NNE 10 17 30.14 1021 10 16 0.00 0.00
4:53 am 04:53 Clear 53 11.7 39 3.9 59 59 NNE 8 13 30.16 1021 10 16 0.00 0.00
5:53 am 05:53 Clear 52 11.1 39 3.9 61 61 NNE 7 11 30.17 1022 10 16 0.00 0.00
6:53 am 06:53 Sunny 51 10.6 38 3.3 61 61 NNE 8 13 30.21 1023 10 16 0.00 0.00
7:53 am 07:53 Sunny 53 11.7 39 3.9 59 59 NE 9 15 30.24 1024 10 16 0.00 0.00
8:10 am 08:10 Mostly Sunny 54 12.2 39 3.9 57 57 NNE 8 13 30.26 1025 10 16 0.00 0.00
8:53 am 08:53 Partly Cloudy 55 12.8 40 4.4 57 57 NE 7 11 30.26 1025 10 16 0.00 0.00
9:53 am 09:53 Mostly Sunny 57 13.9 40 4.4 53 53 VRB 6 9 30.25 1024 10 16 0.00 0.00
10:53 am 10:53 Sunny 60 15.6 41 5 50 50 VRB 3 6 30.26 1025 10 16 0.00 0.00
11:53 am 11:53 Sunny 63 17.2 41 5 45 45 E 5 7 30.22 1023 10 16 0.00 0.00
12:53 pm 12:53 Cloudy 65 18.3 39 3.9 39 39 Calm 30.20 1023 10 16 0.00 0.00
1:53 pm 13:53 Cloudy 67 19.4 38 3.3 35 35 NNE 5 7 30.18 1022 10 16 0.00 0.00
2:53 pm 14:53 Partly Cloudy 67 19.4 39 3.9 36 36 VRB 5 7 30.17 1022 10 16 0.00 0.00
3:53 pm 15:53 Mostly Cloudy 67 19.4 38 3.3 35 35 N 5 7 30.18 1022 10 16 0.00 0.00
4:53 pm 16:53 Sunny 65 18.3 37 2.8 36 36 NE 6 9 30.19 1022 10 16 0.00 0.00
5:53 pm 17:53 Partly Cloudy 61 16.1 36 2.2 39 39 NNE 7 11 30.20 1023 10 16 0.00 0.00
6:53 pm 18:53 Clear 60 15.6 34 1.1 38 38 NNE 10 17 30.19 1022 10 16 0.00 0.00
7:53 pm 19:53 Mostly Cloudy 58 14.4 33 0.6 39 39 NE 7 11 30.19 1022 10 16 0.00 0.00
8:53 pm 20:53 Clear 56 13.3 31 -0.6 39 39 NE 12 19 30.18 1022 10 16 0.00 0.00
9:53 pm 21:53 Clear 54 12.2 31 -0.6 42 42 ENE 10 17 30.17 1022 10 16 0.00 0.00
10:53 pm 22:53 Partly Cloudy 53 11.7 31 -0.6 43 43 NE 10 17 30.14 1021 10 16 0.00 0.00
11:53 pm 23:53 Cloudy with Rain 49 9.4 38 3.3 66 66 Calm 30.16 1022 6 10 0.03 0.76

Powered by AerisWeather